User: anonymous   Login
Location: Miami, Florida
(25.6830°N, 80.1700°W)
Time: 19:26:29
(UTC-04:00)
Language:

Hubble Space Telescope - Orbit

View from above orbital plane
View from above orbital plane
View from above satellite
View from above satellite

Ground track
Ground track

The orbit data is extracted from the following two-line orbital elements,

1 20580U 90037B   18050.58790264 +.00000510 +00000-0 +20300-4 0  9994
2 20580 028.4688 172.4720 0002597 319.3341 111.5997 15.08981702327605
Epoch (UTC): 19 February 2018 14:06:34
Eccentricity: 0.0002597
inclination: 28.4688°
perigee height: 537 km
apogee height: 541 km
right ascension of ascending node: 172.4720°
argument of perigee: 319.3341°
revolutions per day: 15.08981702
mean anomaly at epoch: 111.5997°
orbit number at epoch: 32760

The dashed part of the orbit path shows where the satellite is in the earth's shadow,  

DLR